Year,Month,Day,Hour,Minute,Value (Times are PST for temperature in C)
2020,08,16,00,00,18.80
2020,08,16,00,01,18.80
2020,08,16,00,02,18.80
2020,08,16,00,03,18.80
2020,08,16,00,04,18.80
2020,08,16,00,05,18.80
2020,08,16,00,06,18.80
2020,08,16,00,07,18.80
2020,08,16,00,08,18.80
2020,08,16,00,09,18.80
2020,08,16,00,10,18.70
2020,08,16,00,11,18.70
2020,08,16,00,12,18.70
2020,08,16,00,13,18.70
2020,08,16,00,14,18.70
2020,08,16,00,15,18.70
2020,08,16,00,16,18.70
2020,08,16,00,17,18.70
2020,08,16,00,18,18.70
2020,08,16,00,19,18.70
2020,08,16,00,20,18.60
2020,08,16,00,21,18.60
2020,08,16,00,22,18.60
2020,08,16,00,23,18.60
2020,08,16,00,24,18.60
2020,08,16,00,25,18.60
2020,08,16,00,26,18.60
2020,08,16,00,27,18.60
2020,08,16,00,28,18.60
2020,08,16,00,29,18.50
2020,08,16,00,30,18.50
2020,08,16,00,31,18.50
2020,08,16,00,32,18.50
2020,08,16,00,33,18.40
2020,08,16,00,34,18.40
2020,08,16,00,35,18.40
2020,08,16,00,36,18.40
2020,08,16,00,37,18.40
2020,08,16,00,38,18.30
2020,08,16,00,39,18.30
2020,08,16,00,40,18.30
2020,08,16,00,41,18.30
2020,08,16,00,42,18.30
2020,08,16,00,43,18.20
2020,08,16,00,44,18.20
2020,08,16,00,45,18.20
2020,08,16,00,46,18.10
2020,08,16,00,47,18.10
2020,08,16,00,48,18.00
2020,08,16,00,49,18.00
2020,08,16,00,50,17.90
2020,08,16,00,51,17.90
2020,08,16,00,52,17.90
2020,08,16,00,53,17.90
2020,08,16,00,54,17.80
2020,08,16,00,55,17.80
2020,08,16,00,56,17.80
2020,08,16,00,57,17.80
2020,08,16,00,58,17.80
2020,08,16,00,59,17.80
2020,08,16,01,00,17.80
2020,08,16,01,01,17.70
2020,08,16,01,02,17.70
2020,08,16,01,03,17.70
2020,08,16,01,04,17.70
2020,08,16,01,05,17.70
2020,08,16,01,06,17.60
2020,08,16,01,07,17.60
2020,08,16,01,08,17.60
2020,08,16,01,09,17.60
2020,08,16,01,10,17.50
2020,08,16,01,11,17.50
2020,08,16,01,12,17.40
2020,08,16,01,13,17.40
2020,08,16,01,14,17.40
2020,08,16,01,15,17.30
2020,08,16,01,16,17.30
2020,08,16,01,17,17.30
2020,08,16,01,18,17.30
2020,08,16,01,19,17.30
2020,08,16,01,20,17.20
2020,08,16,01,21,17.20
2020,08,16,01,22,17.20
2020,08,16,01,23,17.20
2020,08,16,01,24,17.20
2020,08,16,01,25,17.20
2020,08,16,01,26,17.20
2020,08,16,01,27,17.10
2020,08,16,01,28,17.10
2020,08,16,01,29,17.10
2020,08,16,01,30,17.10
2020,08,16,01,31,17.10
2020,08,16,01,32,17.10
2020,08,16,01,33,17.00
2020,08,16,01,34,17.00
2020,08,16,01,35,16.90
2020,08,16,01,36,16.90
2020,08,16,01,37,16.90
2020,08,16,01,38,16.90
2020,08,16,01,39,16.90
2020,08,16,01,40,16.90
2020,08,16,01,41,16.80
2020,08,16,01,42,16.80
2020,08,16,01,43,16.80
2020,08,16,01,44,16.80
2020,08,16,01,45,16.80
2020,08,16,01,46,16.80
2020,08,16,01,47,16.80
2020,08,16,01,48,16.80
2020,08,16,01,49,16.90
2020,08,16,01,50,16.90
2020,08,16,01,51,16.90
2020,08,16,01,52,16.90
2020,08,16,01,53,16.90
2020,08,16,01,54,16.90
2020,08,16,01,55,16.90
2020,08,16,01,56,16.90
2020,08,16,01,57,16.90
2020,08,16,01,58,16.90
2020,08,16,01,59,16.90
2020,08,16,02,00,16.90
2020,08,16,02,01,16.90
2020,08,16,02,02,16.90
2020,08,16,02,03,16.90
2020,08,16,02,04,16.90
2020,08,16,02,05,16.90
2020,08,16,02,06,16.90
2020,08,16,02,07,16.90
2020,08,16,02,08,16.80
2020,08,16,02,09,16.80
2020,08,16,02,10,16.80
2020,08,16,02,11,16.80
2020,08,16,02,12,16.80
2020,08,16,02,13,16.80
2020,08,16,02,14,16.80
2020,08,16,02,15,16.80
2020,08,16,02,16,16.80
2020,08,16,02,17,16.80
2020,08,16,02,18,16.80
2020,08,16,02,19,16.80
2020,08,16,02,20,16.80
2020,08,16,02,21,16.80
2020,08,16,02,22,16.80
2020,08,16,02,23,16.80
2020,08,16,02,24,16.80
2020,08,16,02,25,16.80
2020,08,16,02,26,16.80
2020,08,16,02,27,16.80
2020,08,16,02,28,16.80
2020,08,16,02,29,16.80
2020,08,16,02,30,16.80
2020,08,16,02,31,16.80
2020,08,16,02,32,16.80
2020,08,16,02,33,16.80
2020,08,16,02,34,16.80
2020,08,16,02,35,16.90
2020,08,16,02,36,16.90
2020,08,16,02,37,16.90
2020,08,16,02,38,16.90
2020,08,16,02,39,16.90
2020,08,16,02,40,16.90
2020,08,16,02,41,16.80
2020,08,16,02,42,16.80
2020,08,16,02,43,16.80
2020,08,16,02,44,16.80
2020,08,16,02,45,16.80
2020,08,16,02,46,16.80
2020,08,16,02,47,16.70
2020,08,16,02,48,16.70
2020,08,16,02,49,16.70
2020,08,16,02,50,16.60
2020,08,16,02,51,16.60
2020,08,16,02,52,16.50
2020,08,16,02,53,16.50
2020,08,16,02,54,16.50
2020,08,16,02,55,16.50
2020,08,16,02,56,16.60
2020,08,16,02,57,16.60
2020,08,16,02,58,16.70
2020,08,16,02,59,16.80
2020,08,16,03,00,16.90
2020,08,16,03,01,17.00
2020,08,16,03,02,17.10
2020,08,16,03,03,17.20
2020,08,16,03,04,17.30
2020,08,16,03,05,17.30
2020,08,16,03,06,17.40
2020,08,16,03,07,17.40
2020,08,16,03,08,17.50
2020,08,16,03,09,17.50
2020,08,16,03,10,17.60
2020,08,16,03,11,17.60
2020,08,16,03,12,17.70
2020,08,16,03,13,17.70
2020,08,16,03,14,17.80
2020,08,16,03,15,17.80
2020,08,16,03,16,17.80
2020,08,16,03,17,17.80
2020,08,16,03,18,17.80
2020,08,16,03,19,17.80
2020,08,16,03,20,17.80
2020,08,16,03,21,17.80
2020,08,16,03,22,17.80
2020,08,16,03,23,17.80
2020,08,16,03,24,17.90
2020,08,16,03,25,17.90
2020,08,16,03,26,18.00
2020,08,16,03,27,18.00
2020,08,16,03,28,18.10
2020,08,16,03,29,18.10
2020,08,16,03,30,18.20
2020,08,16,03,31,18.20
2020,08,16,03,32,18.20
2020,08,16,03,33,18.10
2020,08,16,03,34,18.10
2020,08,16,03,35,18.10
2020,08,16,03,36,18.00
2020,08,16,03,37,18.00
2020,08,16,03,38,17.90
2020,08,16,03,39,17.80
2020,08,16,03,40,17.80
2020,08,16,03,41,17.70
2020,08,16,03,42,17.70
2020,08,16,03,43,17.60
2020,08,16,03,44,17.60
2020,08,16,03,45,17.50
2020,08,16,03,46,17.40
2020,08,16,03,47,17.40
2020,08,16,03,48,17.30
2020,08,16,03,49,17.20
2020,08,16,03,50,17.20
2020,08,16,03,51,17.10
2020,08,16,03,52,17.10
2020,08,16,03,53,17.00
2020,08,16,03,54,17.00
2020,08,16,03,55,17.00
2020,08,16,03,56,16.90
2020,08,16,03,57,16.90
2020,08,16,03,58,16.90
2020,08,16,03,59,16.90
2020,08,16,04,00,16.90
2020,08,16,04,01,16.90
2020,08,16,04,02,16.90
2020,08,16,04,03,16.90
2020,08,16,04,04,16.90
2020,08,16,04,05,16.90
2020,08,16,04,06,16.80
2020,08,16,04,07,16.80
2020,08,16,04,08,16.70
2020,08,16,04,09,16.70
2020,08,16,04,10,16.60
2020,08,16,04,11,16.60
2020,08,16,04,12,16.50
2020,08,16,04,13,16.40
2020,08,16,04,14,16.40
2020,08,16,04,15,16.30
2020,08,16,04,16,16.30
2020,08,16,04,17,16.20
2020,08,16,04,18,16.20
2020,08,16,04,19,16.20
2020,08,16,04,20,16.20
2020,08,16,04,21,16.20
2020,08,16,04,22,16.10
2020,08,16,04,23,16.10
2020,08,16,04,24,16.10
2020,08,16,04,25,16.10
2020,08,16,04,26,16.00
2020,08,16,04,27,16.00
2020,08,16,04,28,16.00
2020,08,16,04,29,16.00
2020,08,16,04,30,16.10
2020,08,16,04,31,16.10
2020,08,16,04,32,16.10
2020,08,16,04,33,16.10
2020,08,16,04,34,16.10
2020,08,16,04,35,16.10
2020,08,16,04,36,16.10
2020,08,16,04,37,16.20
2020,08,16,04,38,16.20
2020,08,16,04,39,16.20
2020,08,16,04,40,16.20
2020,08,16,04,41,16.30
2020,08,16,04,42,16.30
2020,08,16,04,43,16.30
2020,08,16,04,44,16.30
2020,08,16,04,45,16.30
2020,08,16,04,46,16.30
2020,08,16,04,47,16.30
2020,08,16,04,48,16.40
2020,08,16,04,49,16.40
2020,08,16,04,50,16.40
2020,08,16,04,51,16.40
2020,08,16,04,52,16.40
2020,08,16,04,53,16.40
2020,08,16,04,54,16.40
2020,08,16,04,55,16.40
2020,08,16,04,56,16.40
2020,08,16,04,57,16.40
2020,08,16,04,58,16.40
2020,08,16,04,59,16.40
2020,08,16,05,00,16.40
2020,08,16,05,01,16.40
2020,08,16,05,02,16.40
2020,08,16,05,03,16.40
2020,08,16,05,04,16.40
2020,08,16,05,05,16.40
2020,08,16,05,06,16.40
2020,08,16,05,07,16.40
2020,08,16,05,08,16.30
2020,08,16,05,09,16.30
2020,08,16,05,10,16.30
2020,08,16,05,11,16.30
2020,08,16,05,12,16.30
2020,08,16,05,13,16.30
2020,08,16,05,14,16.20
2020,08,16,05,15,16.10
2020,08,16,05,16,16.10
2020,08,16,05,17,16.00
2020,08,16,05,18,16.00
2020,08,16,05,19,15.90
2020,08,16,05,20,15.80
2020,08,16,05,21,15.80
2020,08,16,05,22,15.80
2020,08,16,05,23,15.70
2020,08,16,05,24,15.70
2020,08,16,05,25,15.60
2020,08,16,05,26,15.60
2020,08,16,05,27,15.60
2020,08,16,05,28,15.60
2020,08,16,05,29,15.60
2020,08,16,05,30,15.60
2020,08,16,05,31,15.60
2020,08,16,05,32,15.60
2020,08,16,05,33,15.60
2020,08,16,05,34,15.60
2020,08,16,05,35,15.60
2020,08,16,05,36,15.60
2020,08,16,05,37,15.60
2020,08,16,05,38,15.60
2020,08,16,05,39,15.60
2020,08,16,05,40,15.60
2020,08,16,05,41,15.60
2020,08,16,05,42,15.60
2020,08,16,05,43,15.70
2020,08,16,05,44,15.70
2020,08,16,05,45,15.70
2020,08,16,05,46,15.60
2020,08,16,05,47,15.60
2020,08,16,05,48,15.60
2020,08,16,05,49,15.70
2020,08,16,05,50,15.70
2020,08,16,05,51,15.70
2020,08,16,05,52,15.70
2020,08,16,05,53,15.70
2020,08,16,05,54,15.80
2020,08,16,05,55,15.80
2020,08,16,05,56,15.80
2020,08,16,05,57,15.80
2020,08,16,05,58,15.80
2020,08,16,05,59,15.80
2020,08,16,06,00,15.80
2020,08,16,06,01,15.80
2020,08,16,06,02,15.80
2020,08,16,06,03,15.80
2020,08,16,06,04,15.80
2020,08,16,06,05,15.80
2020,08,16,06,06,15.80
2020,08,16,06,07,15.80
2020,08,16,06,08,15.80
2020,08,16,06,09,15.80
2020,08,16,06,10,15.80
2020,08,16,06,11,15.80
2020,08,16,06,12,15.80
2020,08,16,06,13,15.80
2020,08,16,06,14,15.80
2020,08,16,06,15,15.70
2020,08,16,06,16,15.70
2020,08,16,06,17,15.70
2020,08,16,06,18,15.70
2020,08,16,06,19,15.70
2020,08,16,06,20,15.70
2020,08,16,06,21,15.60
2020,08,16,06,22,15.60
2020,08,16,06,23,15.60
2020,08,16,06,24,15.60
2020,08,16,06,25,15.60
2020,08,16,06,26,15.50
2020,08,16,06,27,15.50
2020,08,16,06,28,15.50
2020,08,16,06,29,15.50
2020,08,16,06,30,15.50
2020,08,16,06,31,15.60
2020,08,16,06,32,15.70
2020,08,16,06,33,15.80
2020,08,16,06,34,15.90
2020,08,16,06,35,16.00
2020,08,16,06,36,16.10
2020,08,16,06,37,16.20
2020,08,16,06,38,16.30
2020,08,16,06,39,16.40
2020,08,16,06,40,16.50
2020,08,16,06,41,16.70
2020,08,16,06,42,16.90
2020,08,16,06,43,17.10
2020,08,16,06,44,17.30
2020,08,16,06,45,17.40
2020,08,16,06,46,17.50
2020,08,16,06,47,17.50
2020,08,16,06,48,17.60
2020,08,16,06,49,17.60
2020,08,16,06,50,17.70
2020,08,16,06,51,17.80
2020,08,16,06,52,17.80
2020,08,16,06,53,17.90
2020,08,16,06,54,17.90
2020,08,16,06,55,18.00
2020,08,16,06,56,18.10
2020,08,16,06,57,18.20
2020,08,16,06,58,18.30
2020,08,16,06,59,18.40
2020,08,16,07,00,18.40
2020,08,16,07,01,18.50
2020,08,16,07,02,18.50
2020,08,16,07,03,18.60
2020,08,16,07,04,18.60
2020,08,16,07,05,18.70
2020,08,16,07,06,18.70
2020,08,16,07,07,18.70
2020,08,16,07,08,18.70
2020,08,16,07,09,18.70
2020,08,16,07,10,18.80
2020,08,16,07,11,18.80
2020,08,16,07,12,18.80
2020,08,16,07,13,18.80
2020,08,16,07,14,18.90
2020,08,16,07,15,18.90
2020,08,16,07,16,19.00
2020,08,16,07,17,19.10
2020,08,16,07,18,19.10
2020,08,16,07,19,19.20
2020,08,16,07,20,19.20
2020,08,16,07,21,19.30
2020,08,16,07,22,19.30
2020,08,16,07,23,19.30
2020,08,16,07,24,19.40
2020,08,16,07,25,19.50
2020,08,16,07,26,19.50
2020,08,16,07,27,19.60
2020,08,16,07,28,19.60
2020,08,16,07,29,19.60
2020,08,16,07,30,19.70
2020,08,16,07,31,19.70
2020,08,16,07,32,19.80
2020,08,16,07,33,19.80
2020,08,16,07,34,19.80
2020,08,16,07,35,19.90
2020,08,16,07,36,19.90
2020,08,16,07,37,20.00
2020,08,16,07,38,20.00
2020,08,16,07,39,20.10
2020,08,16,07,40,20.10
2020,08,16,07,41,20.20
2020,08,16,07,42,20.20
2020,08,16,07,43,20.20
2020,08,16,07,44,20.30
2020,08,16,07,45,20.30
2020,08,16,07,46,20.30
2020,08,16,07,47,20.30
2020,08,16,07,48,20.30
2020,08,16,07,49,20.30
2020,08,16,07,50,20.30
2020,08,16,07,51,20.30
2020,08,16,07,52,20.30
2020,08,16,07,53,20.40
2020,08,16,07,54,20.40
2020,08,16,07,55,20.40
2020,08,16,07,56,20.40
2020,08,16,07,57,20.40
2020,08,16,07,58,20.50
2020,08,16,07,59,20.50
2020,08,16,08,00,20.50
2020,08,16,08,01,20.60
2020,08,16,08,02,20.60
2020,08,16,08,03,20.70
2020,08,16,08,04,20.70
2020,08,16,08,05,20.70
2020,08,16,08,06,20.70
2020,08,16,08,07,20.80
2020,08,16,08,08,20.80
2020,08,16,08,09,20.80
2020,08,16,08,10,20.80
2020,08,16,08,11,20.90
2020,08,16,08,12,20.90
2020,08,16,08,13,20.90
2020,08,16,08,14,20.90
2020,08,16,08,15,20.90
2020,08,16,08,16,21.00
2020,08,16,08,17,21.00
2020,08,16,08,18,21.10
2020,08,16,08,19,21.10
2020,08,16,08,20,21.10
2020,08,16,08,21,21.10
2020,08,16,08,22,21.10
2020,08,16,08,23,21.20
2020,08,16,08,24,21.20
2020,08,16,08,25,21.20
2020,08,16,08,26,21.30
2020,08,16,08,27,21.30
2020,08,16,08,28,21.30
2020,08,16,08,29,21.30
2020,08,16,08,30,21.30
2020,08,16,08,31,21.40
2020,08,16,08,32,21.40
2020,08,16,08,33,21.40
2020,08,16,08,34,21.40
2020,08,16,08,35,21.40
2020,08,16,08,36,21.40
2020,08,16,08,37,21.40
2020,08,16,08,38,21.30
2020,08,16,08,39,21.30
2020,08,16,08,40,21.30
2020,08,16,08,41,21.30
2020,08,16,08,42,21.40
2020,08,16,08,43,21.40
2020,08,16,08,44,21.40
2020,08,16,08,45,21.40
2020,08,16,08,46,21.40
2020,08,16,08,47,21.40
2020,08,16,08,48,21.40
2020,08,16,08,49,21.40
2020,08,16,08,50,21.50
2020,08,16,08,51,21.50
2020,08,16,08,52,21.50
2020,08,16,08,53,21.50
2020,08,16,08,54,21.60
2020,08,16,08,55,21.60
2020,08,16,08,56,21.60
2020,08,16,08,57,21.60
2020,08,16,08,58,21.60
2020,08,16,08,59,21.60
2020,08,16,09,00,21.60
2020,08,16,09,01,21.60
2020,08,16,09,02,21.70
2020,08,16,09,03,21.70
2020,08,16,09,04,21.70
2020,08,16,09,05,21.70
2020,08,16,09,06,21.70
2020,08,16,09,07,21.70
2020,08,16,09,08,21.70
2020,08,16,09,09,21.70
2020,08,16,09,10,21.80
2020,08,16,09,11,21.80
2020,08,16,09,12,21.80
2020,08,16,09,13,21.80
2020,08,16,09,14,21.80
2020,08,16,09,15,21.90
2020,08,16,09,16,21.90
2020,08,16,09,17,21.90
2020,08,16,09,18,21.90
2020,08,16,09,19,22.00
2020,08,16,09,20,22.00
2020,08,16,09,21,22.10
2020,08,16,09,22,22.10
2020,08,16,09,23,22.10
2020,08,16,09,24,22.20
2020,08,16,09,25,22.20
2020,08,16,09,26,22.20
2020,08,16,09,27,22.30
2020,08,16,09,28,22.30
2020,08,16,09,29,22.30
2020,08,16,09,30,22.30
2020,08,16,09,31,22.40
2020,08,16,09,32,22.40
2020,08,16,09,33,22.50
2020,08,16,09,34,22.60
2020,08,16,09,35,22.60
2020,08,16,09,36,22.70
2020,08,16,09,37,22.70
2020,08,16,09,38,22.70
2020,08,16,09,39,22.70
2020,08,16,09,40,22.70
2020,08,16,09,41,22.80
2020,08,16,09,42,22.80
2020,08,16,09,43,22.80
2020,08,16,09,44,22.80
2020,08,16,09,45,22.80
2020,08,16,09,46,22.90
2020,08,16,09,47,22.90
2020,08,16,09,48,23.00
2020,08,16,09,49,23.00
2020,08,16,09,50,23.00
2020,08,16,09,51,23.10
2020,08,16,09,52,23.10
2020,08,16,09,53,23.10
2020,08,16,09,54,23.10
2020,08,16,09,55,23.10
2020,08,16,09,56,23.20
2020,08,16,09,57,23.20
2020,08,16,09,58,23.20
2020,08,16,09,59,23.20
2020,08,16,10,00,23.20
2020,08,16,10,01,23.20
2020,08,16,10,02,23.20
2020,08,16,10,03,23.20
2020,08,16,10,04,23.20
2020,08,16,10,05,23.30
2020,08,16,10,06,23.30
2020,08,16,10,07,23.40
2020,08,16,10,08,23.40
2020,08,16,10,09,23.50
2020,08,16,10,10,23.60
2020,08,16,10,11,23.60
2020,08,16,10,12,23.60
2020,08,16,10,13,23.60
2020,08,16,10,14,23.70
2020,08,16,10,15,23.70
2020,08,16,10,16,23.80
2020,08,16,10,17,23.70
2020,08,16,10,18,23.70
2020,08,16,10,19,23.60
2020,08,16,10,20,23.60
2020,08,16,10,21,23.50
2020,08,16,10,22,23.50
2020,08,16,10,23,23.50
2020,08,16,10,24,23.60
2020,08,16,10,25,23.60
2020,08,16,10,26,23.60
2020,08,16,10,27,23.70
2020,08,16,10,28,23.70
2020,08,16,10,29,23.80
2020,08,16,10,30,23.80
2020,08,16,10,31,23.80
2020,08,16,10,32,23.80
2020,08,16,10,33,23.80
2020,08,16,10,34,23.80
2020,08,16,10,35,23.80
2020,08,16,10,36,23.80
2020,08,16,10,37,23.80
2020,08,16,10,38,23.80
2020,08,16,10,39,23.90
2020,08,16,10,40,24.00
2020,08,16,10,41,24.00
2020,08,16,10,42,24.10
2020,08,16,10,43,24.10
2020,08,16,10,44,24.10
2020,08,16,10,45,24.10
2020,08,16,10,46,24.10
2020,08,16,10,47,24.10
2020,08,16,10,48,24.10
2020,08,16,10,49,24.10
2020,08,16,10,50,24.00
2020,08,16,10,51,24.10
2020,08,16,10,52,24.10
2020,08,16,10,53,24.10
2020,08,16,10,54,24.10
2020,08,16,10,55,24.10
2020,08,16,10,56,24.20
2020,08,16,10,57,24.20
2020,08,16,10,58,24.30
2020,08,16,10,59,24.30
2020,08,16,11,00,24.30
2020,08,16,11,01,24.30
2020,08,16,11,02,24.30
2020,08,16,11,03,24.30
2020,08,16,11,04,24.30
2020,08,16,11,05,24.30
2020,08,16,11,06,24.30
2020,08,16,11,07,24.30
2020,08,16,11,08,24.40
2020,08,16,11,09,24.40
2020,08,16,11,10,24.50
2020,08,16,11,11,24.50
2020,08,16,11,12,24.60
2020,08,16,11,13,24.70
2020,08,16,11,14,24.80
2020,08,16,11,15,24.80
2020,08,16,11,16,24.90
2020,08,16,11,17,25.00
2020,08,16,11,18,25.10
2020,08,16,11,19,25.20
2020,08,16,11,20,25.20
2020,08,16,11,21,25.30
2020,08,16,11,22,25.30
2020,08,16,11,23,25.20
2020,08,16,11,24,25.20
2020,08,16,11,25,25.20
2020,08,16,11,26,25.20
2020,08,16,11,27,25.20
2020,08,16,11,28,25.30
2020,08,16,11,29,25.30
2020,08,16,11,30,25.30
2020,08,16,11,31,25.30
2020,08,16,11,32,25.40
2020,08,16,11,33,25.30
2020,08,16,11,34,25.30
2020,08,16,11,35,25.40
2020,08,16,11,36,25.40
2020,08,16,11,37,25.50
2020,08,16,11,38,25.60
2020,08,16,11,39,25.70
2020,08,16,11,40,25.80
2020,08,16,11,41,26.00
2020,08,16,11,42,26.10
2020,08,16,11,43,26.20
2020,08,16,11,44,26.20
2020,08,16,11,45,26.30
2020,08,16,11,46,26.30
2020,08,16,11,47,26.30
2020,08,16,11,48,26.30
2020,08,16,11,49,26.40
2020,08,16,11,50,26.40
2020,08,16,11,51,26.50
2020,08,16,11,52,26.60
2020,08,16,11,53,26.60
2020,08,16,11,54,26.60
2020,08,16,11,55,26.60
2020,08,16,11,56,26.70
2020,08,16,11,57,26.70
2020,08,16,11,58,26.80
2020,08,16,11,59,26.90
2020,08,16,12,00,26.90
2020,08,16,12,01,26.90
2020,08,16,12,02,26.90
2020,08,16,12,03,26.90
2020,08,16,12,04,26.90
2020,08,16,12,05,26.90
2020,08,16,12,06,26.90
2020,08,16,12,07,26.80
2020,08,16,12,08,26.70
2020,08,16,12,09,26.70
2020,08,16,12,10,26.70
2020,08,16,12,11,26.80
2020,08,16,12,12,26.80
2020,08,16,12,13,26.90
2020,08,16,12,14,27.00
2020,08,16,12,15,27.10
2020,08,16,12,16,27.20
2020,08,16,12,17,27.20
2020,08,16,12,18,27.20
2020,08,16,12,19,27.30
2020,08,16,12,20,27.40
2020,08,16,12,21,27.50
2020,08,16,12,22,27.50
2020,08,16,12,23,27.50
2020,08,16,12,24,27.40
2020,08,16,12,25,27.40
2020,08,16,12,26,27.50
2020,08,16,12,27,27.60
2020,08,16,12,28,27.70
2020,08,16,12,29,27.90
2020,08,16,12,30,28.00
2020,08,16,12,31,28.10
2020,08,16,12,32,28.20
2020,08,16,12,33,28.30
2020,08,16,12,34,28.30
2020,08,16,12,35,28.40
2020,08,16,12,36,28.40
2020,08,16,12,37,28.40
2020,08,16,12,38,28.40
2020,08,16,12,39,28.40
2020,08,16,12,40,28.40
2020,08,16,12,41,28.40
2020,08,16,12,42,28.50
2020,08,16,12,43,28.60
2020,08,16,12,44,28.60
2020,08,16,12,45,28.60
2020,08,16,12,46,28.70
2020,08,16,12,47,28.70
2020,08,16,12,48,28.70
2020,08,16,12,49,28.70
2020,08,16,12,50,28.70
2020,08,16,12,51,28.70
2020,08,16,12,52,28.80
2020,08,16,12,53,28.80
2020,08,16,12,54,28.80
2020,08,16,12,55,28.80
2020,08,16,12,56,28.80
2020,08,16,12,57,28.90
2020,08,16,12,58,28.80
2020,08,16,12,59,28.70
2020,08,16,13,00,28.60
2020,08,16,13,01,28.50
2020,08,16,13,02,28.40
2020,08,16,13,03,28.40
2020,08,16,13,04,28.40
2020,08,16,13,05,28.40
2020,08,16,13,06,28.40
2020,08,16,13,07,28.50
2020,08,16,13,08,28.60
2020,08,16,13,09,28.60
2020,08,16,13,10,28.70
2020,08,16,13,11,28.70
2020,08,16,13,12,28.60
2020,08,16,13,13,28.60
2020,08,16,13,14,28.60
2020,08,16,13,15,28.60
2020,08,16,13,16,28.60
2020,08,16,13,17,28.60
2020,08,16,13,18,28.60
2020,08,16,13,19,28.50
2020,08,16,13,20,28.50
2020,08,16,13,21,28.50
2020,08,16,13,22,28.50
2020,08,16,13,23,28.50
2020,08,16,13,24,28.50
2020,08,16,13,25,28.60
2020,08,16,13,26,28.60
2020,08,16,13,27,28.70
2020,08,16,13,28,28.70
2020,08,16,13,29,28.70
2020,08,16,13,30,28.70
2020,08,16,13,31,28.80
2020,08,16,13,32,28.80
2020,08,16,13,33,28.80
2020,08,16,13,34,28.80
2020,08,16,13,35,28.80
2020,08,16,13,36,28.80
2020,08,16,13,37,28.70
2020,08,16,13,38,28.60
2020,08,16,13,39,28.50
2020,08,16,13,40,28.50
2020,08,16,13,41,28.40
2020,08,16,13,42,28.30
2020,08,16,13,43,28.20
2020,08,16,13,44,28.20
2020,08,16,13,45,28.10
2020,08,16,13,46,28.10
2020,08,16,13,47,28.10
2020,08,16,13,48,28.20
2020,08,16,13,49,28.20
2020,08,16,13,50,28.30
2020,08,16,13,51,28.40
2020,08,16,13,52,28.40
2020,08,16,13,53,28.40
2020,08,16,13,54,28.40
2020,08,16,13,55,28.40
2020,08,16,13,56,28.50
2020,08,16,13,57,28.60
2020,08,16,13,58,28.70
2020,08,16,13,59,28.80
2020,08,16,14,00,28.80
2020,08,16,14,01,28.80
2020,08,16,14,02,28.80
2020,08,16,14,03,28.90
2020,08,16,14,04,28.90
2020,08,16,14,05,29.10
2020,08,16,14,06,29.10
2020,08,16,14,07,29.20
2020,08,16,14,08,29.30
2020,08,16,14,09,29.40
2020,08,16,14,10,29.40
2020,08,16,14,11,29.40
2020,08,16,14,12,29.30
2020,08,16,14,13,29.30
2020,08,16,14,14,29.30
2020,08,16,14,15,29.30
2020,08,16,14,16,29.30
2020,08,16,14,17,29.30
2020,08,16,14,18,29.30
2020,08,16,14,19,29.30
2020,08,16,14,20,29.30
2020,08,16,14,21,29.30
2020,08,16,14,22,29.30
2020,08,16,14,23,29.40
2020,08,16,14,24,29.50
2020,08,16,14,25,29.50
2020,08,16,14,26,29.40
2020,08,16,14,27,29.40
2020,08,16,14,28,29.40
2020,08,16,14,29,29.50
2020,08,16,14,30,29.50
2020,08,16,14,31,29.60
2020,08,16,14,32,29.70
2020,08,16,14,33,29.80
2020,08,16,14,34,29.80
2020,08,16,14,35,29.90
2020,08,16,14,36,29.90
2020,08,16,14,37,30.00
2020,08,16,14,38,30.10
2020,08,16,14,39,30.10
2020,08,16,14,40,30.00
2020,08,16,14,41,30.00
2020,08,16,14,42,29.90
2020,08,16,14,43,29.80
2020,08,16,14,44,29.80
2020,08,16,14,45,29.80
2020,08,16,14,46,29.90
2020,08,16,14,47,29.90
2020,08,16,14,48,29.90
2020,08,16,14,49,29.90
2020,08,16,14,50,29.90
2020,08,16,14,51,30.00
2020,08,16,14,52,30.00
2020,08,16,14,53,30.10
2020,08,16,14,54,30.10
2020,08,16,14,55,30.20
2020,08,16,14,56,30.20
2020,08,16,14,57,30.10
2020,08,16,14,58,30.10
2020,08,16,14,59,30.00
2020,08,16,15,00,30.00
2020,08,16,15,01,29.90
2020,08,16,15,02,29.90
2020,08,16,15,03,29.80
2020,08,16,15,04,29.70
2020,08,16,15,05,29.60
2020,08,16,15,06,29.50
2020,08,16,15,07,29.40
2020,08,16,15,08,29.30
2020,08,16,15,09,29.30
2020,08,16,15,10,29.20
2020,08,16,15,11,29.20
2020,08,16,15,12,29.10
2020,08,16,15,13,29.10
2020,08,16,15,14,29.30
2020,08,16,15,15,29.40
2020,08,16,15,16,29.50
2020,08,16,15,17,29.60
2020,08,16,15,18,29.60
2020,08,16,15,19,29.50
2020,08,16,15,20,29.50
2020,08,16,15,21,29.50
2020,08,16,15,22,29.60
2020,08,16,15,23,29.70
2020,08,16,15,24,29.70
2020,08,16,15,25,29.80
2020,08,16,15,26,29.80
2020,08,16,15,27,29.80
2020,08,16,15,28,29.70
2020,08,16,15,29,29.70
2020,08,16,15,30,29.70
2020,08,16,15,31,29.80
2020,08,16,15,32,29.80
2020,08,16,15,33,29.80
2020,08,16,15,34,29.80
2020,08,16,15,35,29.90
2020,08,16,15,36,29.90
2020,08,16,15,37,30.00
2020,08,16,15,38,30.10
2020,08,16,15,39,30.10
2020,08,16,15,40,30.10
2020,08,16,15,41,30.20
2020,08,16,15,42,30.20
2020,08,16,15,43,30.30
2020,08,16,15,44,30.30
2020,08,16,15,45,30.30
2020,08,16,15,46,30.30
2020,08,16,15,47,30.40
2020,08,16,15,48,30.40
2020,08,16,15,49,30.30
2020,08,16,15,50,30.20
2020,08,16,15,51,30.10
2020,08,16,15,52,30.00
2020,08,16,15,53,29.90
2020,08,16,15,54,29.90
2020,08,16,15,55,29.90
2020,08,16,15,56,29.80
2020,08,16,15,57,29.80
2020,08,16,15,58,29.80
2020,08,16,15,59,29.90
2020,08,16,16,00,30.00
2020,08,16,16,01,30.20
2020,08,16,16,02,30.30
2020,08,16,16,03,30.40
2020,08,16,16,04,30.50
2020,08,16,16,05,30.60
2020,08,16,16,06,30.70
2020,08,16,16,07,30.70
2020,08,16,16,08,30.80
2020,08,16,16,09,30.80
2020,08,16,16,10,30.80
2020,08,16,16,11,30.70
2020,08,16,16,12,30.70
2020,08,16,16,13,30.70
2020,08,16,16,14,30.70
2020,08,16,16,15,30.60
2020,08,16,16,16,30.60
2020,08,16,16,17,30.40
2020,08,16,16,18,30.40
2020,08,16,16,19,30.30
2020,08,16,16,20,30.30
2020,08,16,16,21,30.20
2020,08,16,16,22,30.10
2020,08,16,16,23,30.10
2020,08,16,16,24,30.00
2020,08,16,16,25,29.90
2020,08,16,16,26,29.80
2020,08,16,16,27,29.80
2020,08,16,16,28,29.80
2020,08,16,16,29,29.80
2020,08,16,16,30,29.90
2020,08,16,16,31,29.90
2020,08,16,16,32,29.90
2020,08,16,16,33,29.90
2020,08,16,16,34,29.80
2020,08,16,16,35,29.90
2020,08,16,16,36,29.90
2020,08,16,16,37,29.90
2020,08,16,16,38,29.90
2020,08,16,16,39,29.90
2020,08,16,16,40,29.90
2020,08,16,16,41,29.90
2020,08,16,16,42,29.90
2020,08,16,16,43,29.90
2020,08,16,16,44,29.80
2020,08,16,16,45,29.80
2020,08,16,16,46,29.80
2020,08,16,16,47,29.70
2020,08,16,16,48,29.70
2020,08,16,16,49,29.70
2020,08,16,16,50,29.60
2020,08,16,16,51,29.60
2020,08,16,16,52,29.60
2020,08,16,16,53,29.50
2020,08,16,16,54,29.50
2020,08,16,16,55,29.40
2020,08,16,16,56,29.30
2020,08,16,16,57,29.30
2020,08,16,16,58,29.20
2020,08,16,16,59,29.10
2020,08,16,17,00,29.00
2020,08,16,17,01,29.00
2020,08,16,17,02,28.90
2020,08,16,17,03,28.90
2020,08,16,17,04,28.90
2020,08,16,17,05,29.00
2020,08,16,17,06,29.00
2020,08,16,17,07,29.10
2020,08,16,17,08,29.20
2020,08,16,17,09,29.20
2020,08,16,17,10,29.30
2020,08,16,17,11,29.40
2020,08,16,17,12,29.50
2020,08,16,17,13,29.50
2020,08,16,17,14,29.50
2020,08,16,17,15,29.60
2020,08,16,17,16,29.60
2020,08,16,17,17,29.60
2020,08,16,17,18,29.60
2020,08,16,17,19,29.60